EN

Hourly Weather Laguna Cuicocha

Today, 23 July, Friday

Time Temperature Precipitation Wind Pressure Humidity
00:00 +7°C° 0 mm 2 mps 525 mmHg 83%
01:00 +8°C° 0 mm 2 mps 524 mmHg 81%
02:00 +7°C° 0 mm 2 mps 524 mmHg 82%
03:00 +7°C° 0 mm 2 mps 524 mmHg 82%
04:00 +7°C° 0 mm 2 mps 524 mmHg 82%
05:00 +7°C° 0 mm 2 mps 524 mmHg 82%
06:00 +7°C° 0 mm 2 mps 524 mmHg 82%
07:00 +7°C° 0 mm 2 mps 525 mmHg 82%
08:00 +9°C° 0 mm 2 mps 525 mmHg 77%
09:00 +10°C° 0 mm 2 mps 526 mmHg 72%
10:00 +12°C° 0 mm 2 mps 527 mmHg 67%
11:00 +13°C° 0.1 mm 2 mps 527 mmHg 64%
12:00 +14°C° 0.1 mm 2 mps 527 mmHg 60%
13:00 +15°C° 0.1 mm 2 mps 527 mmHg 56%
14:00 +14°C° 0.2 mm 2 mps 527 mmHg 58%
15:00 +14°C° 0.2 mm 2 mps 526 mmHg 60%
16:00 +14°C° 0.2 mm 2 mps 526 mmHg 62%
17:00 +12°C° 0.2 mm 2 mps 525 mmHg 71%
18:00 +10°C° 0.2 mm 1 mps 524 mmHg 80%
19:00 +8°C° 0.2 mm 1 mps 524 mmHg 89%
20:00 +8°C° 0.1 mm 1 mps 524 mmHg 87%
21:00 +8°C° 0.1 mm 1 mps 524 mmHg 85%
22:00 +7°C° 0.1 mm 2 mps 525 mmHg 83%
23:00 +8°C° 0 mm 1 mps 525 mmHg 81%

Tomorrow, 24 July, Saturday

Time Temperature Precipitation Wind Pressure Humidity
00:00 +8°C° 0 mm 1 mps 525 mmHg 80%
01:00 +9°C° 0 mm 1 mps 524 mmHg 78%
02:00 +8°C° 0.1 mm 1 mps 524 mmHg 80%
03:00 +8°C° 0.1 mm 1 mps 524 mmHg 81%
04:00 +8°C° 0.1 mm 1 mps 523 mmHg 82%
05:00 +8°C° 0 mm 1 mps 524 mmHg 81%
06:00 +8°C° 0 mm 1 mps 524 mmHg 80%
07:00 +8°C° 0 mm 2 mps 525 mmHg 79%
08:00 +10°C° 0 mm 2 mps 526 mmHg 71%
09:00 +13°C° 0 mm 2 mps 527 mmHg 64%
10:00 +15°C° 0 mm 2 mps 528 mmHg 56%
11:00 +15°C° 0.3 mm 2 mps 527 mmHg 59%
12:00 +15°C° 0.3 mm 2 mps 527 mmHg 61%
13:00 +15°C° 0.3 mm 2 mps 527 mmHg 63%
14:00 +15°C° 0.9 mm 2 mps 526 mmHg 68%
15:00 +14°C° 0.9 mm 2 mps 526 mmHg 73%
16:00 +13°C° 0.9 mm 2 mps 525 mmHg 78%
17:00 +12°C° 0.7 mm 2 mps 525 mmHg 83%
18:00 +11°C° 0.7 mm 1 mps 525 mmHg 88%
19:00 +10°C° 0.7 mm 1 mps 525 mmHg 93%
20:00 +9°C° 0.2 mm 1 mps 525 mmHg 92%
21:00 +9°C° 0.2 mm 1 mps 525 mmHg 92%
22:00 +9°C° 0.2 mm 1 mps 525 mmHg 92%
23:00 +8°C° 0 mm 1 mps 524 mmHg 91%

Day after tomorrow, 25 July, Sunday

Time Temperature Precipitation Wind Pressure Humidity
00:00 +8°C° 0 mm 1 mps 524 mmHg 89%
01:00 +7°C° 0 mm 1 mps 524 mmHg 88%
02:00 +7°C° 0 mm 1 mps 523 mmHg 87%
03:00 +7°C° 0 mm 1 mps 523 mmHg 86%
04:00 +7°C° 0 mm 1 mps 523 mmHg 85%
05:00 +7°C° 0 mm 1 mps 523 mmHg 84%
06:00 +8°C° 0 mm 1 mps 524 mmHg 83%
07:00 +8°C° 0 mm 1 mps 524 mmHg 82%
08:00 +10°C° 0 mm 1 mps 525 mmHg 77%
09:00 +11°C° 0 mm 1 mps 526 mmHg 71%
10:00 +13°C° 0 mm 1 mps 527 mmHg 66%
11:00 +13°C° 0.3 mm 2 mps 527 mmHg 68%
12:00 +13°C° 0.3 mm 2 mps 526 mmHg 70%
13:00 +13°C° 0.3 mm 2 mps 526 mmHg 72%
14:00 +13°C° 0.7 mm 2 mps 525 mmHg 76%
15:00 +12°C° 0.7 mm 2 mps 525 mmHg 80%
16:00 +10°C° 0.7 mm 2 mps 524 mmHg 84%
17:00 +11°C° 0.6 mm 1 mps 524 mmHg 88%
18:00 +10°C° 0.6 mm 1 mps 524 mmHg 91%
19:00 +9°C° 0.6 mm 1 mps 524 mmHg 95%
20:00 +8°C° 0.2 mm 0 mps 524 mmHg 94%
21:00 +8°C° 0.2 mm 0 mps 525 mmHg 94%
22:00 +7°C° 0.2 mm 0 mps 525 mmHg 93%
23:00 +7°C° 0 mm 0 mps 525 mmHg 93%

26 July, Monday

Time Temperature Precipitation Wind Pressure Humidity
00:00 +7°C° 0 mm 0 mps 524 mmHg 92%
01:00 +7°C° 0 mm 0 mps 524 mmHg 92%
02:00 +6°C° 0 mm 0 mps 524 mmHg 91%
03:00 +7°C° 0 mm 1 mps 523 mmHg 91%
04:00 +7°C° 0 mm 1 mps 523 mmHg 90%
05:00 +7°C° 0 mm 1 mps 523 mmHg 88%
06:00 +8°C° 0 mm 1 mps 524 mmHg 86%
07:00 +8°C° 0 mm 1 mps 524 mmHg 84%
08:00 +10°C° 0 mm 1 mps 525 mmHg 77%
09:00 +12°C° 0 mm 2 mps 526 mmHg 69%
10:00 +14°C° 0 mm 2 mps 527 mmHg 61%
11:00 +14°C° 0.3 mm 2 mps 527 mmHg 62%
12:00 +14°C° 0.3 mm 2 mps 527 mmHg 63%
13:00 +13°C° 0.3 mm 3 mps 527 mmHg 63%
14:00 +13°C° 0.6 mm 3 mps 526 mmHg 67%
15:00 +14°C° 0.6 mm 2 mps 526 mmHg 71%
16:00 +13°C° 0.6 mm 2 mps 525 mmHg 74%
17:00 +12°C° 0.3 mm 2 mps 525 mmHg 80%
18:00 +11°C° 0.3 mm 1 mps 525 mmHg 86%
19:00 +9°C° 0.3 mm 1 mps 525 mmHg 92%
20:00 +9°C° 0 mm 1 mps 525 mmHg 92%
21:00 +8°C° 0 mm 1 mps 525 mmHg 91%
22:00 +8°C° 0 mm 1 mps 525 mmHg 91%
23:00 +8°C° 0 mm 1 mps 524 mmHg 90%

27 July, Tuesday

Time Temperature Precipitation Wind Pressure Humidity
00:00 +7°C° 0 mm 1 mps 524 mmHg 89%
01:00 +7°C° 0 mm 1 mps 524 mmHg 88%
02:00 +7°C° 0 mm 1 mps 523 mmHg 87%
03:00 +6°C° 0 mm 1 mps 523 mmHg 87%
04:00 +6°C° 0 mm 1 mps 523 mmHg 86%
05:00 +7°C° 0 mm 1 mps 523 mmHg 84%
06:00 +7°C° 0 mm 1 mps 524 mmHg 83%
07:00 +7°C° 0 mm 1 mps 524 mmHg 81%
08:00 +10°C° 0 mm 1 mps 525 mmHg 74%
09:00 +12°C° 0 mm 1 mps 527 mmHg 66%
10:00 +14°C° 0 mm 1 mps 528 mmHg 58%
11:00 +14°C° 0.2 mm 2 mps 528 mmHg 60%
12:00 +15°C° 0.2 mm 2 mps 527 mmHg 62%
13:00 +15°C° 0.2 mm 2 mps 527 mmHg 64%
14:00 +14°C° 1 mm 2 mps 526 mmHg 70%
15:00 +13°C° 1 mm 2 mps 526 mmHg 76%
16:00 +12°C° 1 mm 1 mps 525 mmHg 82%
17:00 +11°C° 0.6 mm 1 mps 525 mmHg 86%
18:00 +10°C° 0.6 mm 1 mps 525 mmHg 91%
19:00 +9°C° 0.6 mm 1 mps 524 mmHg 95%
20:00 +8°C° 0.1 mm 0 mps 525 mmHg 94%
21:00 +8°C° 0.1 mm 0 mps 525 mmHg 94%
22:00 +8°C° 0.1 mm 0 mps 525 mmHg 93%
23:00 +8°C° 0.1 mm 0 mps 525 mmHg 93%

28 July, Wednesday

Time Temperature Precipitation Wind Pressure Humidity
00:00 +8°C° 0.1 mm 0 mps 525 mmHg 92%
01:00 +7°C° 0.1 mm 0 mps 525 mmHg 92%
02:00 +7°C° 0 mm 0 mps 524 mmHg 91%
03:00 +7°C° 0 mm 0 mps 524 mmHg 91%
04:00 +7°C° 0 mm 0 mps 523 mmHg 90%
05:00 +8°C° 0 mm 1 mps 524 mmHg 89%
06:00 +8°C° 0 mm 1 mps 524 mmHg 88%
07:00 +8°C° 0 mm 1 mps 525 mmHg 87%
08:00 +10°C° 0 mm 1 mps 526 mmHg 79%
09:00 +12°C° 0 mm 1 mps 526 mmHg 71%
10:00 +14°C° 0 mm 1 mps 527 mmHg 63%
11:00 +14°C° 0.5 mm 2 mps 527 mmHg 65%
12:00 +15°C° 0.5 mm 2 mps 527 mmHg 67%
13:00 +15°C° 0.5 mm 2 mps 527 mmHg 68%
14:00 +14°C° 1.4 mm 2 mps 526 mmHg 73%
15:00 +13°C° 1.4 mm 2 mps 525 mmHg 78%
16:00 +12°C° 1.4 mm 1 mps 525 mmHg 82%
17:00 +12°C° 1.2 mm 1 mps 524 mmHg 85%
18:00 +11°C° 1.2 mm 1 mps 524 mmHg 88%
19:00 +10°C° 1.2 mm 1 mps 524 mmHg 91%
20:00 +10°C° 0.3 mm 1 mps 524 mmHg 89%
21:00 +8°C° 0.3 mm 2 mps 524 mmHg 88%
22:00 +8°C° 0.3 mm 2 mps 525 mmHg 86%
23:00 +8°C° 0 mm 2 mps 524 mmHg 85%
Show more